Kars, Turkey

8:04 PM +03 on January 23, 2018 (GMT +0300)
Kars

Weather History for LTCF - December, 2012

Change the Weather History Date:

Thursday, December 13, 2012

  Actual Average Record
Temperature  
Mean Temperature 22 °F -  
Max Temperature 26 °F 26 °F - ()
Min Temperature 17 °F 11 °F - ()
Degree Days  
Heating Degree Days 44    
Moisture  
Dew Point 21 °F    
Average Humidity 98    
Maximum Humidity 100    
Minimum Humidity 92    
Precipitation  
Precipitation 0.00 in 0.03 in - ()
Sea Level Pressure  
Sea Level Pressure 30.10 in    
Wind  
Wind Speed 1 mph ()    
Max Wind Speed 5 mph    
Max Gust Speed -    
Visibility 3.5 miles    
Events Fog    
T = Trace of Precipitation, MM = Missing Value Source: Averaged Metar Reports

Daily Weather History Graph

Daily Weather History Graph

Search for Another Location

Airport or City:

Trip Planner

Search our weather history database for the weather conditions in past years. The results will help you decide how hot, cold, wet, or windy it might be!

Date:

Astronomy

Dec. 13, 2012 Rise Set
Actual Time 6:22 AM EET 3:41 PM EET
Civil Twilight 5:51 AM EET 4:11 PM EET
Nautical Twilight 5:17 AM EET 4:46 PM EET
Astronomical Twilight 4:44 AM EET 5:19 PM EET
Moon 6:08 AM EET (12/13) 3:58 PM EET (12/13)
Length of Visible Light 10h 20m
Length of Day
9h 18m
New Moon, 0% of the Moon is Illuminated
Dec 13
New Moon
Dec 20
First Quarter
Dec 28
Full
Jan 5
Last Quarter
Jan 11
New

Hourly Weather History & Observations

Time (EET) Temp. Windchill Dew Point Humidity Pressure Visibility Wind Dir Wind Speed Gust Speed Precip Events Conditions
12:50 AM 19.4 °F - 17.6 °F 93% 30.18 in 0.2 mi Calm Calm - N/A Fog Light Freezing Fog
1:50 AM 19.4 °F - 19.4 °F 100% 30.15 in 0.2 mi Calm Calm - N/A Fog Light Freezing Fog
2:00 AM 19 °F - 19 °F 100%  in 0 mi Calm Calm - - Fog Heavy Fog
2:50 AM 21.2 °F - 19.4 °F 93% 30.15 in 0.2 mi Calm Calm - N/A Fog Light Freezing Fog
3:50 AM 21.2 °F - 19.4 °F 93% 30.12 in 0.2 mi Calm Calm - N/A Fog Light Freezing Fog
5:50 AM 21.2 °F - 19.4 °F 93% 30.12 in 0.2 mi Calm Calm - N/A Fog Light Freezing Fog
6:50 AM 21.2 °F - 21.2 °F 100% 30.12 in 0.2 mi Calm Calm - N/A Fog Light Freezing Fog
7:50 AM 21.2 °F - 21.2 °F 100% 30.12 in 0.7 mi Calm Calm - N/A   Overcast
8:00 AM 22 °F - 22 °F 97%  in 1 mi Calm Calm - - Fog Light Fog
8:50 AM 21.2 °F - 21.2 °F 100% 30.12 in 1.9 mi Calm Calm - N/A   Overcast
9:50 AM 21.2 °F - 21.2 °F 100% 30.12 in 1.9 mi Calm Calm - N/A   Overcast
10:50 AM 23.0 °F - 23.0 °F 100% 30.12 in 3.7 mi Calm Calm - N/A   Overcast
11:50 AM 23.0 °F - 23.0 °F 100% 30.09 in 4.3 mi Calm Calm - N/A   Overcast
12:50 PM 23.0 °F - 23.0 °F 100% 30.09 in 4.3 mi WSW 2.3 mph - N/A   Overcast
1:50 PM 23.0 °F - 23.0 °F 100% 30.09 in 4.3 mi Variable 1.2 mph - N/A   Overcast
2:00 PM 23 °F - 22 °F 93%  in 6 mi SSE 1.2 mph - -   Mist
2:50 PM 21.2 °F 16.4 °F 21.2 °F 100% 30.06 in 5.0 mi ESE 3.5 mph - N/A   Overcast
3:50 PM 21.2 °F 14.9 °F 21.2 °F 100% 30.06 in 5.6 mi ESE 4.6 mph - N/A   Overcast
4:50 PM 21.2 °F - 21.2 °F 100% 30.06 in 5.0 mi NNE 2.3 mph - N/A   Overcast
5:50 PM 21.2 °F - 21.2 °F 100% 30.06 in 6.2 mi Calm Calm - N/A   Mostly Cloudy
6:50 PM 21.2 °F - 21.2 °F 100% 30.06 in 6.2 mi North 1.2 mph - N/A   Mostly Cloudy
7:50 PM 21.2 °F - 21.2 °F 100% 30.06 in 6.2 mi NNW 1.2 mph - N/A   Mostly Cloudy
8:00 PM 23 °F - 22 °F 92%  in 6 mi NNW 1.2 mph - -   Mostly Cloudy
8:50 PM 21.2 °F 16.4 °F 21.2 °F 100% 30.09 in 6.2 mi NW 3.5 mph - N/A   Mostly Cloudy
9:50 PM 21.2 °F - 21.2 °F 100% 30.09 in 6.2 mi NNW 1.2 mph - N/A   Mostly Cloudy
10:50 PM 21.2 °F - 21.2 °F 100% 30.09 in 6.2 mi Calm Calm - N/A   Mostly Cloudy
11:50 PM 21.2 °F - 19.4 °F 93% 30.09 in 6.2 mi WSW 2.3 mph - N/A   Mostly Cloudy